Regional Weather Roundup
Issued by NWS

Home | Current Version | Previous Version | Graphics & Text | Print | Product List | Glossary On
Versions: 1 2 3 4 5 6 7 8 9 10 11 12 13 14 15 16 17 18 19 20 21 22 23 24 25 26 27 28 29 30 31 32 33 34 35 36 37 38 39 40 41 42 43 44 45 46 47 48 49 50
000
ASUS43 KDMX 241603
RWRIA

WEATHER ROUNDUP FOR IOWA
NATIONAL WEATHER SERVICE DES MOINES IA
1100 AM CDT SUN JUL 24 2016

NOTE: "FAIR" INDICATES FEW OR NO CLOUDS BELOW 12,000 FEET WITH NO
SIGNIFICANT WEATHER AND/OR OBSTRUCTIONS TO VISIBILITY.

* - THESE STATIONS ARE NOT NWS STATIONS...THUS NOT UNDER NWS
QUALITY CONTROL.  THEY ALSO DO NOT REPORT WEATHER SUCH
AS PRECIPITATION OR FOG.

IAZ001>003-012>014-020>022-031>034-043>046-241700-
   NORTHWEST IOWA

CITY           SKY/WX    TMP DP  RH WIND       PRES   REMARKS
CARROLL *      SUNNY     82  66  57 N13       29.95S HX  85
CHEROKEE *     SUNNY     79  63  56 N7        30.00R HX  81
LE MARS *      MOSUNNY   82  64  54 N8G15     30.01R HX  84
SHELDON *      SUNNY     79  66  65 N9G17     29.99R HX  81
SIOUX CITY     SUNNY     86  60  41 N15       30.00R HX  86
SPENCER        SUNNY     80  64  58 N10       29.98R HX  82
STORM LAKE *   SUNNY     79  66  65 N9G18     29.99R HX  81
$$

IAZ055>058-069>071-079>083-090>094-241700-
   SOUTHWEST IOWA

CITY           SKY/WX    TMP DP  RH WIND       PRES   REMARKS
ATLANTIC *     MOSUNNY   82  68  61 N10G16    29.96R HX  85
CLARINDA *       N/A     86  79  79 MISG      29.95R HX  99
COUNCIL BLFS * MOSUNNY   82  66  57 NE10      29.98R HX  85
CRESTON *      PTSUNNY   84  77  79 N10       29.95R HX  94
HARLAN  *      MOSUNNY   82  66  57 NE8G15    30.02R HX  85
LAMONI         MOSUNNY   86  76  71 NW8       29.92R HX  96
RED OAK *      MOSUNNY   84  75  74 N10       29.96R HX  92
SHENANDOAH *   CLOUDY    84  77  79 N8G16     29.95R HX  94
$$

IAZ047>049-059>061-072>074-084-241700-
   CENTRAL IOWA

CITY           SKY/WX    TMP DP  RH WIND       PRES   REMARKS
AMES           SUNNY     83  74  74 N14       29.91S HX  89
ANKENY *         N/A    N/A N/A N/A MISG        N/A
BOONE *        SUNNY     82  72  69 N12       29.93R HX  87
CHARITON *       N/A    N/A N/A N/A MISG        N/A
DES MOINES     MOSUNNY   87  74  64 N12       29.89S HX  95
GRINNELL*      PTSUNNY   84  76  77 NW12      29.90R HX  93
KNOXVILLE *    MOSUNNY   86  77  74 NW14      29.89R HX  97
MARSHALLTOWN   MOSUNNY   85  77  77 N8        29.89R HX  95
NEWTON *       CLOUDY    82  79  89 NW10G18   29.89R HX  93
PELLA *        MOSUNNY   86  76  73 NW9       29.90R HX  96
PERRY *          N/A     83  74  74 N10       29.93R HX  89
$$

IAZ004>006-015-016-023>025-035-036-241700-
   NORTH CENTRAL IOWA

CITY           SKY/WX    TMP DP  RH WIND       PRES   REMARKS
ALGONA *       SUNNY     81  66  61 NW9G20    29.96R HX  83
ESTHERVILLE    SUNNY     77  65  66 NW12      29.97R
FORT DODGE *   SUNNY     81  70  69 NW10      29.96R HX  84
MASON CITY     SUNNY     81  68  64 NW17      29.95R HX  84
FOREST CITY *    N/A     79  64  61 N13       29.94R HX  81
IOWA FALLS *     N/A     82  70  65 NW14G21   29.92S HX  86
$$

IAZ007>011-017>019-026>030-037>042-050>054-066-241700-
   NORTHEAST IOWA

CITY           SKY/WX    TMP DP  RH WIND       PRES   REMARKS
CEDAR RAPIDS   SUNNY     87  80  79 W9        29.86R HX 103
CHARLES CITY * SUNNY     82  75  78 N13       29.90R HX  89
CLINTON *      MOSUNNY   87  80  79 SW12      29.87R HX 103
DECORAH *      PTSUNNY   84  75  74 NW14      29.86R HX  92
DUBUQUE        MOSUNNY   86  78  77 W13       29.87R HX  98
MONTICELLO *   MOSUNNY   86  79  79 W9G16     29.86R HX  99
OELWEIN *      CLOUDY    81  77  89 NW8       29.89R HX  88
WATERLOO       CLOUDY    83  76  79 NW10      29.87R HX  91
$$

IAZ064-065-067-068-078-241700-
   EAST CENTRAL IOWA

CITY           SKY/WX    TMP DP  RH WIND       PRES   REMARKS
DAVENPORT      CLOUDY    87  78  74 SW10      29.87R HX 100
IOWA CITY      CLOUDY    89  78  70 W12       29.87R HX 103
MT. PLEASANT * CLOUDY    89  79  72 SW8       29.89R HX 105
MUSCATINE *    CLOUDY    88  77  70 SW9G16    29.87R HX 100
QUAD CITIES    CLOUDY    89  77  67 SW8       29.85S HX 101
$$

IAZ062-063-075>077-085>089-095>099-241700-
   SOUTHEAST IOWA

CITY           SKY/WX    TMP DP  RH WIND       PRES   REMARKS
BURLINGTON     SUNNY     88  80  77 SW8       29.88R HX 104
FAIRFIELD *    CLOUDY    84  75  74 SW7       29.89R HX  92
KEOKUK *       SUNNY     90  79  70 SW13G18   29.88S HX 105
CENTERVILLE *    N/A     84  73  70 W7G18     29.92R HX  91
OTTUMWA        CLOUDY    84  76  76 SW8       29.89R HX  93
WASHINGTON *   MOSUNNY   86  79  79 SW7G14    29.89R HX  99
$$

ABBREVIATIONS USED IN REMARKS
   TC - TEMPERATURES IN CELSIUS
  WCI - WIND CHILL INDEX
   HX - HEAT INDEX
  VSB - VISIBILITY
$$




USA.gov is the U.S. government's official web portal to all federal, state and local government web resources and services.